Regional Weather Roundup
Issued by NWS Grand Forks, ND

Home | Current Version | Previous Version | Graphics & Text | Print | Product List | Glossary On
Versions: 1 2 3 4 5 6 7 8 9 10 11 12 13 14 15 16 17 18 19 20 21 22 23 24 25 26 27 28 29 30 31 32 33 34 35 36 37 38 39 40 41 42 43 44 45 46 47 48 49 50
000
ASUS43 KFGF 020610
RWRFGF
PRAIRIE TO PINES  WEATHER ROUNDUP
NATIONAL WEATHER SERVICE EASTERN NORTH DAKOTA/GRAND FORKS ND
100 AM CDT TUE JUN 02 2015

 **SATELLITE DATA USED TO AUGMENT SKY COVER AT AUTOMATED STATIONS**
 *****  WEATHER ACROSS EASTERN NORTH DAKOTA  *****

CITY           SKY/WX    TMP DP  RH WIND       PRES   REMARKS
GRAND FORKS    LGT RAIN  63  48  58 S15G23    29.86S
6HR MIN TEMP:  63; 6HR MAX TEMP:  74; 6HR PCP: TRACE;

GRAND FRKS AFB LGT RAIN  64  49  58 S20G28    29.85F
GRAND FRKS NWS   N/A     63 N/A N/A S12         N/A
DEVILS LAKE    CLOUDY    63  57  82 SE16      29.84F
6HR MIN TEMP:  63; 6HR MAX TEMP:  77; 6HR PCP:  1.50;

FARGO          CLOUDY    66  45  46 SE25G35   29.89F
WAHPETON ARPT  MOCLDY    61  43  51 SE15G23   29.94R
$$

 ***** WEATHER ACROSS CENTRAL AND WESTERN NORTH DAKOTA  *****

CITY           SKY/WX    TMP DP  RH WIND       PRES   REMARKS
BISMARCK       CLOUDY    70  61  73 SE6       29.77F
6HR MIN TEMP:  69; 6HR MAX TEMP:  81;

MINOT          CLOUDY    60  58  92 NW7       29.79S
6HR MIN TEMP:  60; 6HR MAX TEMP:  81; 6HR PCP: TRACE;

JAMESTOWN      CLOUDY    65  57  75 S10       29.83F
6HR MIN TEMP:  65; 6HR MAX TEMP:  77;

MINOT AFB      CLOUDY    61  61 100 N9        29.79S
GARRISON         N/A     64  58  80 VRB6      29.79R
WILLISTON      CLOUDY    66  56  70 NE12      29.83R
6HR MIN TEMP:  65; 6HR MAX TEMP:  87;

DICKINSON      CLOUDY    64  56  75 NE26G35   29.80R
6HR MIN TEMP:  64; 6HR MAX TEMP:  83;

HETTINGER      CLOUDY    67  60  78 SE9       29.76S
6HR MIN TEMP:  66; 6HR MAX TEMP:  81;

$$

 *****  OTHER AIRPORT OBSERVATIONS IN OUR AREA  *****

CITY           SKY/WX    TMP DP  RH WIND       PRES   REMARKS
WALHALLA       FAIR      59  59 100 MISG      29.84S
GRAFTON AIRPOR DRIZZLE   59  55  88 SE13      29.88F
VALLEY CITY AR FAIR      66  52  59 S16G23    29.86S
CANDO          CLOUDY    63  61  94 SE8       29.82F
CAVALIER APRT  FAIR      61  54  77 S17G25    29.84F
GWINNER        NOT AVBL
SHEYENNE NWR     N/A     65  49  57 SE12      29.95S
ROLLA          FAIR      59  59 100 CALM      29.83F
 ***** THE ABOVE OBSERVATIONS ARE NON NWS ARE NOT QUALITY
       CONTROLLED AND MAY MIS-REPORT RAIN FOR SNOW...
$$

  *****  WEATHER ACROSS NORTHERN MINNESOTA  *****

CITY           SKY/WX    TMP DP  RH WIND       PRES   REMARKS
FLAG ISLAND    NOT AVBL
WARROAD        CLOUDY    61  45  55 S12       29.92F
ROSEAU         CLOUDY    61  45  55 S16       29.90F
HALLOCK        CLOUDY    57  54  88 S12       29.86F
THF RVR FALLS  CLOUDY    63  43  48 S13       29.93S
6HR MIN TEMP:  63; 6HR MAX TEMP:  70;

BAUDETTE       CLOUDY    57  37  47 SE12      29.96F
6HR MIN TEMP:  57; 6HR MAX TEMP:  65;

WASKISH        CLOUDY    59  39  47 SE12G18   29.97F
CROOKSTON      CLOUDY    64  45  48 S21G28    29.90R
STEPHEN NDAWN    N/A     59  54  82 S17         N/A
GREENBUSH NDAW   N/A     59  52  77 S12         N/A
$$
  *****  WEATHER ACROSS CENTRAL AND WEST MINNESOTA  *****

CITY           SKY/WX    TMP DP  RH WIND       PRES   REMARKS
FOSSTON        CLOUDY    61  43  51 SE14G23   29.94F
BEMIDJI        CLOUDY    56  38  49 SE10      29.99F
PARK RAPIDS    CLOUDY    59  38  45 SE12      30.00F
6HR MIN TEMP:  59; 6HR MAX TEMP:  68;

ELBOW LAKE     FAIR      62  42  48 SE21G28   29.97S
6HR MIN TEMP:  61; 6HR MAX TEMP:  72;

WADENA         CLOUDY    57  41  54 SE8       30.00F
DETROIT LAKES  CLOUDY    59  45  58 S12       29.98S
MOORHEAD       CLOUDY    64  45  48 S22G29    29.91F
FERGUS FALLS   PTCLDY    63  43  48 S20G25    29.96S
MORRIS MN      CLEAR     61  43  51 SE21      29.96F
STAPLES        MOCLDY    59  36  41 SE12      30.01F
$$
  *****  WEATHER ELSEWHERE ACROSS MINNESOTA  *****

CITY           SKY/WX    TMP DP  RH WIND       PRES   REMARKS
DULUTH         MOCLDY    45  29  53 E9        30.12F
6HR MIN TEMP:  45; 6HR MAX TEMP:  57;

INTRNTL FALLS  MOCLDY    59  38  45 S7        30.01F
6HR MIN TEMP:  59; 6HR MAX TEMP:  67;

ELY            CLOUDY    48  28  46 CALM      30.10F
CLOQUET        CLOUDY    43  34  70 E5        30.11F
WHEATON        PTCLDY    59  46  63 SE17      29.96F
BRAINERD       CLOUDY    59  40  49 SE10      30.05F
6HR MIN TEMP:  57; 6HR MAX TEMP:  66;

HIBBING        CLOUDY    47  32  56 SE5       30.09F
6HR MIN TEMP:  47; 6HR MAX TEMP:  66;

ALEXANDRIA     CLEAR     59  41  51 SE14      30.02F
6HR MIN TEMP:  59; 6HR MAX TEMP:  70;

SAINT CLOUD    PTCLDY    57  42  57 SE7       30.06F
6HR MIN TEMP:  57; 6HR MAX TEMP:  67;

MINNEAPOLIS    CLEAR     58  43  57 SE10      30.10F
6HR MIN TEMP:  58; 6HR MAX TEMP:  68;

$$

  *****  WEATHER ACROSS SOUTH DAKOTA  *****

CITY           SKY/WX    TMP DP  RH WIND       PRES   REMARKS
SIOUX FALLS    MOCLDY    64  50  60 S13       30.01S
6HR MIN TEMP:  64; 6HR MAX TEMP:  75;

BROOKINGS      PTCLDY    63  48  59 S15       30.01R
WATERTOWN      PTCLDY    64  49  57 S16       29.96S
6HR MIN TEMP:  64; 6HR MAX TEMP:  75;

HURON          CLOUDY    66  52  60 S15G25    29.91S
6HR MIN TEMP:  66; 6HR MAX TEMP:  79;

SISSETON         N/A     60  51  72 S10       29.92F
ABERDEEN       MOCLDY    66  53  63 S17       29.87S
6HR MIN TEMP:  66; 6HR MAX TEMP:  80;

MITCHELL       CLOUDY    66  53  63 S16       29.95S
PIERRE         CLOUDY    69  60  73 SE12G21   29.81F
6HR MIN TEMP:  69; 6HR MAX TEMP:  81;

MOBRIDGE       CLOUDY    70  62  76 SE13      29.77F
RAPID CITY     CLOUDY    65  55  70 E9        29.82F
6HR MIN TEMP:  64; 6HR MAX TEMP:  82;

$$

  *****  SOME WEATHER IN NEARBY STATES *****

CITY           SKY/WX    TMP DP  RH WIND       PRES   REMARKS
GLASGOW MT     MOCLDY    67  39  35 NE22G30   29.80F
6HR MIN TEMP:  67; 6HR MAX TEMP:  80;

GREAT FALLS MT CLOUDY    55  52  89 NE8       29.86F
6HR MIN TEMP:  53; 6HR MAX TEMP:  68; 6HR PCP:  0.20;

CHEYENNE WY    MOCLDY    58  48  69 NE6       30.08R
6HR MIN TEMP:  58; 6HR MAX TEMP:  72;

SCOTTSBLUFF NE CLOUDY    60  55  83 NE3       29.98R
6HR MIN TEMP:  59; 6HR MAX TEMP:  72; 6HR PCP: TRACE;

OMAHA NE       PTCLDY    62  54  74 S10       30.08S
6HR MIN TEMP:  62; 6HR MAX TEMP:  74;

DES MOINES IA  PTCLDY    58  52  80 S5        30.13R
6HR MIN TEMP:  58; 6HR MAX TEMP:  71;

DAVENPORT IA   CLEAR     56  45  66 E12       30.16F
6HR MIN TEMP:  56; 6HR MAX TEMP:  69;

CHICAGO IL     CLEAR     46  37  71 N5        30.19F
6HR MIN TEMP:  44; 6HR MAX TEMP:  56;

EAU CLAIRE WI  CLEAR     52  37  56 S5        30.15S
6HR MIN TEMP:  52; 6HR MAX TEMP:  67;

LA CROSSE WI   CLEAR     55  39  54 E7        30.15S
6HR MIN TEMP:  55; 6HR MAX TEMP:  70;

$$

  *****  SOME NATIONAL WEATHER *****

CITY           SKY/WX    TMP DP  RH WIND       PRES   REMARKS
LA GUARDIA NY  LGT RAIN  50  46  87 NE12      30.12F
6HR MIN TEMP:  50; 6HR MAX TEMP:  54; 6HR PCP:  0.09;

RALEIGH NC     MOCLDY    69  67  93 CALM      30.02F
6HR MIN TEMP:  68; 6HR MAX TEMP:  71; 6HR PCP: TRACE;

ATLANTA GA     CLOUDY    70  66  87 SE6       30.04F
6HR MIN TEMP:  69; 6HR MAX TEMP:  74;

NEW ORLEANS LA MOCLDY    74  69  85 W3        30.00S
6HR MIN TEMP:  74; 6HR MAX TEMP:  80; 6HR PCP:  0.35;

OKLAHOMA CITY  PTCLDY    66  62  87 S6        30.04S
6HR MIN TEMP:  66; 6HR MAX TEMP:  80;

ALBUQUERQUE NM PTCLDY    71  39  31 E12       30.12R
6HR MIN TEMP:  70; 6HR MAX TEMP:  82;

SALT LAKE CITY PTCLDY    67  52  58 NW6       29.88S
6HR MIN TEMP:  65; 6HR MAX TEMP:  89;



USA.gov is the U.S. government's official web portal to all federal, state and local government web resources and services.